Flag for Canada Weather past 2 weeks in Guelph, Ontario, Canada

Now
82 °F

Passing clouds.


Feels Like: 85 °F
Forecast: 66 / 82 °F
Wind: No wind

Location: Waterloo Well

Current Time: Sep 3, 2015 at 3:21:23 PM

Latest Report: Sep 3, 2015 at 3:00 PM


Visibility: 9 mi

Pressure: 29.92 "Hg

Humidity: 62%

Dew point: 68 °F

Location of GuelphLocation

Historic Weather in Guelph — Graph

°F

Guelph temperature yesterday

Maximum temperature yesterday: 88 °F (at 4:00 PM)
Minimum temperature yesterday: 57 °F (at 5:00 AM)
Average temperature yesterday: 72 °F

Past Weeks' High & Low Weather Summary

 TemperatureHumidityPressure
High88 °F (Sep 2, 4:00 PM)100% (Aug 22, 1:00 AM)30.24 "Hg (Aug 22, 1:00 AM)
Low45 °F (Aug 28, 3:00 AM)43% (Aug 24, 5:00 PM)29.69 "Hg (Aug 20, 6:00 AM)
Average65 °F81%30.02 "Hg
* Reported Aug 19 2:00 PM — Sep 3 2:00 PM, Guelph, Weather by CustomWeather, © 2015

Note: Actual official high and low records may vary slightly from our data, if they occured in-between our weather recording intervals... More about our weather records

Advertising

Guelph weather history for previous 24 hours

 ConditionsComfort  
Time TempWeatherWind HumidityBarometerVisibility
2:00 PM
Thu, Sep 3
84 °FPassing clouds.2 mph58%29.93 "Hg9 mi
1:51 PM86 °FScattered clouds.7 mph55%29.93 "Hg6 mi
1:00 PM82 °FPartly sunny.3 mph62%29.94 "Hg6 mi
12:00 PM82 °FPassing clouds.3 mph70%29.95 "Hg9 mi
11:00 AM79 °FPartly sunny.2 mph79%29.97 "Hg9 mi
10:00 AM77 °FSunny.3 mph79%29.97 "Hg6 mi
9:57 AM75 °FSunny.3 mph83%29.97 "Hg6 mi
9:03 AM72 °FFog.3 mph94%29.97 "Hg2 mi
8:00 AM68 °FFog.No wind94%29.97 "Hg1 mi
7:03 AM66 °FFog.2 mph100%29.95 "Hg0 mi
6:00 AM64 °FFog.5 mph100%29.94 "Hg1 mi
5:02 AM66 °FFog.No wind94%29.95 "Hg1 mi
4:00 AM66 °FFog.No wind100%29.94 "Hg1 mi
3:00 AM66 °FFog.2 mph94%29.93 "Hg1 mi
2:00 AM64 °FFog.3 mph94%29.94 "Hg1 mi
1:00 AM66 °FFog.2 mph94%29.94 "Hg3 mi
12:04 AM66 °FFog.No wind100%29.96 "Hg2 mi
11:00 PM
Wed, Sep 2
66 °FFog.3 mph100%29.97 "Hg6 mi
10:00 PM70 °FPassing clouds.No wind88%29.97 "Hg9 mi
9:00 PM72 °FClear.No wind88%29.95 "Hg9 mi
8:45 PM72 °FSunny.No wind88%29.96 "Hg9 mi
8:00 PM75 °FSunny.2 mph78%29.94 "Hg9 mi
7:00 PM81 °FSunny.6 mph62%29.93 "Hg9 mi
6:00 PM84 °FSunny.8 mph58%29.93 "Hg9 mi
5:00 PM86 °FSunny.10 mph52%29.94 "Hg9 mi
4:00 PM88 °FBroken clouds.10 mph49%29.95 "Hg9 mi
3:00 PM86 °FMostly cloudy.7 mph52%29.97 "Hg9 mi
Weather by CustomWeather, © 2015

See weather overviewHow to use our weather pages